Home > Weather > London > Past weeks

Flag for Canada Weather for the Past 2 Weeks in London, Ontario, Canada

Now
66 °F

Passing clouds.


Feels Like: 66 °F
Forecast: N/A
Wind: 17 mph from Northwest

Location: London Weather Station

Current Time: May 6, 2016 at 6:53:02 PM

Latest Report: May 6, 2016 at 6:00 PM


Visibility: 15 mi

Pressure: 29.82 "Hg

Humidity: 35%

Dew Point: 37 °F

Location of LondonLocation

Historic Weather in London — Graph

°F

London Temperature Yesterday

Maximum temperature yesterday: 64 °F (at 5:00 PM)
Minimum temperature yesterday: 45 °F (at 3:00 AM)
Average temperature yesterday: 53 °F

High & Low Weather Summary for the Past Weeks

 TemperatureHumidityPressure
High72 °F (May 6, 3:00 PM)100% (Apr 22, 3:00 AM)30.20 "Hg (Apr 22, 3:00 AM)
Low32 °F (Apr 24, 5:00 AM)27% (May 6, 3:00 PM)29.64 "Hg (May 4, 5:00 PM)
Average48 °F70%29.96 "Hg
* Reported Apr 21 5:00 PM — May 6 5:00 PM, London, Weather by CustomWeather, © 2016

Note: Actual official high and low records may vary slightly from our data, if they occured in-between our weather recording intervals... More about our weather records

Advertising

London Weather History for the Previous 24 Hours

Scroll right to see more
 ConditionsComfort  
Time TempWeatherWind HumidityBarometerVisibility
5:00 PM
Fri, May 6
68 °FPassing clouds.14 mph35%29.81 "Hg15 mi
4:00 PM72 °FPassing clouds.8 mph29%29.82 "Hg15 mi
3:00 PM72 °FPassing clouds.17 mph27%29.85 "Hg15 mi
2:00 PM70 °FPassing clouds.10 mph29%29.86 "Hg15 mi
1:00 PM70 °FPassing clouds.13 mph31%29.89 "Hg15 mi
12:00 PM66 °FPassing clouds.10 mph35%29.91 "Hg15 mi
11:00 AM66 °FPassing clouds.14 mph35%29.90 "Hg15 mi
10:00 AM64 °FPassing clouds.10 mph43%29.91 "Hg15 mi
9:00 AM59 °FPassing clouds.9 mph55%29.91 "Hg15 mi
8:00 AM52 °FPassing clouds.12 mph67%29.90 "Hg15 mi
7:00 AM48 °FPassing clouds.8 mph76%29.89 "Hg15 mi
6:00 AM46 °FPassing clouds.7 mph82%29.88 "Hg15 mi
5:00 AM46 °FClear.10 mph82%29.87 "Hg15 mi
4:00 AM48 °FClear.12 mph71%29.86 "Hg15 mi
3:00 AM48 °FClear.10 mph66%29.86 "Hg15 mi
2:00 AM48 °FClear.10 mph66%29.87 "Hg15 mi
1:00 AM48 °FClear.10 mph66%29.87 "Hg15 mi
12:00 AM50 °FPassing clouds.9 mph67%29.87 "Hg15 mi
11:00 PM
Thu, May 5
52 °FPassing clouds.8 mph72%29.86 "Hg15 mi
10:00 PM50 °FPassing clouds.6 mph82%29.85 "Hg15 mi
9:00 PM55 °FScattered clouds.3 mph63%29.85 "Hg15 mi
8:00 PM57 °FScattered clouds.5 mph59%29.83 "Hg15 mi
7:00 PM61 °FBroken clouds.13 mph48%29.82 "Hg15 mi
6:00 PM63 °FScattered clouds.13 mph45%29.81 "Hg15 mi
Weather by CustomWeather, © 2016

See weather overviewHow to use our weather pages